Frankfurt am Main Airport

Airport
ICAO code: 
EDDF
IATA Code: 
FRA
Summary
ICAO Region: 
EUR
Territory: 
Location: 
Frankfurt,
Serving: 
Frankfurt
Elevation: 
364 ft
Coordinates: 
Aerial View: 
50° 2' 27.889" N, 8° 34' 23.849" E
Airport LOS: 
Parallel Runway Operation
Metar
Observation
EDDF 040920Z VRB04KT 9999 FEW048 23/09 Q1020 NOSIG
Station
Frankfurt / M-Flughafen
Date/Time
2022-07-04 09:20:00
Wind speed
04 kts
Lowest cloud amount
few clouds
Temperature
23°C
Dew point
9°C
Humidity
40%
QNH
1020 hPa
Weather condition
n/a

Description

International airport serving Frankfurt am Main, Germany.

Climatology

Temperate Marine climate/Oceanic climate (Köppen climate classification Cfb) - Moderately cool summer and comparatively warm winter.

Runways

Designator Length Width Surface Rops
07L/25R 2800 45 CON Yes/Yes
07C/25C 4000 60 CON Yes/Yes
07R/25L 4000 45 CON Yes/Yes
18/36 4000 45 CON Yes/Yes

SKYbrary Partners:

Safety knowledge contributed by: